[[{"header":{"parameterUnit":"m.s-1","parameterCategory":2,"la1":30.2992,"la2":30.254,"lo1":-89.0895,"lo2":-89.0443,"dy":0.0025,"dx":0.0025,"nx":19,"ny":19,"refTime":"2026-05-04T21:00:00:Z","depth":"0","parameterNumber":2,"parameterNumberName":"U-component_of_CURRENTS"},"data":[0,0,0,0.1495,0.1495,0.1487,0.1487,0.1613,0.1614,0,0,0,0,0,0,0,0,0,0,0,0.1499,0.1499,0.1495,0.1495,0.1487,0.1487,0.1612,0.1614,0,0,0,0,0,0,0,0,0,0,0,0.1499,0.1499,0.1499,0.1495,0.1487,0.1487,0.1612,0.1584,0,0,0,0,0,0,0,0,0,0,0.1574,0.1556,0.1499,0.1499,0.1495,0.1487,0.1487,0.1581,0.1586,0.1655,0,0.1652,0,0.1641,0.1626,0.1626,0,0,0,0.1494,0.1552,0.1554,0.1499,0.1495,0.1487,0.149,0.1583,0.1588,0.1662,0.1654,0.1657,0.1643,0.1627,0.1628,0.1904,0.1906,0,0,0.1494,0.1499,0.1549,0.1557,0.1495,0.1491,0.149,0.1584,0.1593,0.1654,0.166,0.1645,0.1628,0.1629,0.1902,0.1905,0,0,0,0.1496,0.1499,0.1495,0.1553,0.1543,0.1491,0.149,0.1588,0.1588,0.1661,0.1647,0.1629,0.1631,0.1901,0.1903,0.1952,0,0,0,0.1497,0.15,0.1495,0.1498,0.154,0.1547,0.1492,0.1581,0.159,0.1646,0.1629,0.1633,0.1899,0.1902,0.1947,0.1952,0,0,0,0.1499,0.15,0.15,0.1498,0.1495,0.1544,0.1548,0.1581,0.1583,0.1626,0.1633,0.1897,0.1901,0.1942,0.1945,0.2002,0,0,0,0.1503,0.1509,0.15,0.1524,0.1495,0.1559,0.1546,0.1587,0.1625,0.163,0.1899,0.1903,0.194,0.194,0.1997,0.185,0.1858,0,0,0.1514,0.1511,0.153,0.1522,0.1592,0.156,0.1672,0.1698,0.1723,0.1872,0.1878,0.1949,0.1944,0.2001,0.2088,0.2088,0,0,0,0.1538,0.156,0.1576,0.1619,0.1652,0.1708,0.1739,0.1786,0.1899,0.1764,0.2019,0.2016,0.2049,0.1954,0.1956,0.1786,0.1922,0.1922,0.1921,0.1564,0.1603,0.1664,0.1722,0.1765,0.1841,0.1907,0.1997,0.1998,0.2074,0.2109,0.2256,0.216,0.2159,0.1988,0.2179,0.2179,0.218,0.218,0.1639,0.1685,0.1748,0.1813,0.1881,0.197,0.2099,0.2123,0.2277,0.2241,0.2271,0.2076,0.2163,0.1981,0.2184,0.2183,0.2183,0.2182,0.2182,0.1667,0.1696,0.1741,0.1858,0.1947,0.2024,0.2142,0.2238,0.2315,0.2375,0.2262,0.2258,0.2048,0.2383,0.2384,0.2384,0.2384,0.2385,0.2385,0.1673,0.1727,0.18,0.1897,0.1943,0.2028,0.2165,0.2246,0.2302,0.2313,0.2312,0.2088,0.2318,0.2252,0.239,0.2389,0.2388,0.2388,0.2388,0.1744,0.1745,0.1848,0.1902,0.2007,0.2029,0.2152,0.2199,0.2279,0.2275,0.2035,0.2288,0.2252,0.2248,0.2183,0.2295,0.2295,0.2295,0.2295,0.1783,0.1796,0.1912,0.1973,0.2033,0.2043,0.2026,0.2033,0.1973,0.1866,0.1906,0.1795,0.1807,0.1739,0.1747,0.167,0.165,0.1649,0.1648,0.188,0.1888,0.196,0.1988,0.2031,0.2017,0.1907,0.1725,0.1576,0.1611,0.1707,0.1734,0.1564,0.1595,0.148,0.1504,0.1376,0,0]},{"header":{"parameterUnit":"m.s-1","parameterCategory":2,"la1":30.2992,"la2":30.254,"lo1":-89.0895,"lo2":-89.0443,"dy":0.0025,"dx":0.0025,"nx":19,"ny":19,"refTime":"2026-05-04T21:00:00:Z","depth":"0","parameterNumber":3,"parameterNumberName":"V-component_of_CURRENTS"},"data":[0,0,0,0.0209,0.0209,0.0219,0.0219,0.0345,0.0346,0,0,0,0,0,0,0,0,0,0,0,0.0208,0.0208,0.0209,0.0209,0.0219,0.0219,0.0345,0.0346,0,0,0,0,0,0,0,0,0,0,0,0.0208,0.0208,0.0208,0.0209,0.0219,0.0219,0.0344,0.0309,0,0,0,0,0,0,0,0,0,0,0.0286,0.0264,0.0208,0.0208,0.0209,0.0219,0.0219,0.0307,0.0312,0.0371,0,0.0369,0,0.0362,0.0357,0.0357,0,0,0,0.0213,0.026,0.0265,0.0208,0.0209,0.0219,0.0216,0.0309,0.0315,0.0379,0.0371,0.0375,0.0364,0.0358,0.0359,0.0604,0.0605,0,0,0.0212,0.0212,0.0261,0.0269,0.0211,0.0215,0.0216,0.0311,0.0318,0.0371,0.0377,0.0366,0.0359,0.036,0.0602,0.0604,0,0,0,0.0208,0.0211,0.0212,0.0264,0.0258,0.0215,0.0216,0.0314,0.0315,0.0378,0.0368,0.036,0.0362,0.0601,0.0603,0.0656,0,0,0,0.0208,0.0209,0.0212,0.0212,0.0255,0.027,0.0217,0.0308,0.0318,0.0367,0.036,0.0363,0.0599,0.0602,0.0651,0.0693,0,0,0,0.0207,0.0209,0.0209,0.0212,0.0214,0.0267,0.0273,0.0309,0.0312,0.0358,0.0364,0.0598,0.0601,0.0647,0.0686,0.0778,0,0,0,0.0207,0.0214,0.0209,0.0214,0.0214,0.0239,0.0272,0.0297,0.0332,0.0361,0.0599,0.0603,0.0645,0.0681,0.0773,0.0765,0.0788,0,0,0.0217,0.0215,0.0218,0.0213,0.0219,0.0238,0.0325,0.0379,0.042,0.0572,0.0577,0.0653,0.0685,0.0777,0.097,0.0987,0,0,0,0.0221,0.0217,0.022,0.0219,0.0239,0.0329,0.036,0.0445,0.0593,0.0458,0.071,0.0731,0.0786,0.0772,0.0787,0.0786,0.0619,0.0619,0.0618,0.0222,0.0221,0.0228,0.0242,0.029,0.04,0.0517,0.0658,0.0647,0.0751,0.0816,0.0982,0.097,0.0981,0.098,0.0854,0.0855,0.0855,0.0855,0.0209,0.0212,0.0247,0.0255,0.0364,0.0462,0.0711,0.0774,0.0996,0.095,0.1,0.0881,0.1,0.0994,0.0859,0.0859,0.0858,0.0858,0.0857,0.0197,0.0204,0.0202,0.0257,0.0405,0.0561,0.0842,0.0985,0.1066,0.1148,0.1136,0.1134,0.1093,0.1161,0.1162,0.1162,0.1163,0.1163,0.1164,0.0183,0.0188,0.023,0.0294,0.0412,0.0629,0.0936,0.1089,0.1216,0.1233,0.1233,0.1174,0.1076,0.1023,0.1173,0.1172,0.117,0.1169,0.1169,0.0172,0.0186,0.0278,0.0368,0.0621,0.0869,0.1083,0.1315,0.1417,0.1452,0.1346,0.1291,0.1281,0.1268,0.1222,0.1415,0.1415,0.1415,0.1415,0.0189,0.0186,0.0372,0.0571,0.081,0.1024,0.1334,0.1471,0.1494,0.147,0.1448,0.1356,0.1346,0.1335,0.132,0.1273,0.1475,0.1475,0.1475,0.0204,0.0273,0.044,0.0622,0.0917,0.1177,0.1441,0.1563,0.1515,0.1478,0.1459,0.1456,0.1316,0.13,0.1269,0.1248,0.1165,0,0]}],[{"header":{"parameterUnit":"m.s-1","parameterCategory":2,"la1":30.2992,"la2":30.254,"lo1":-89.0895,"lo2":-89.0443,"dy":0.0025,"dx":0.0025,"nx":19,"ny":19,"refTime":"2026-05-04T21:00:00:Z","depth":"2","parameterNumber":2,"parameterNumberName":"U-component_of_CURRENTS"},"data":[0,0,0,0.1416,0.1416,0.1416,0.1416,0.1536,0.1537,0,0,0,0,0,0,0,0,0,0,0,0.1417,0.1417,0.1416,0.1416,0.1416,0.1416,0.1535,0.1537,0,0,0,0,0,0,0,0,0,0,0,0.1417,0.1417,0.1417,0.1416,0.1416,0.1416,0.1535,0.1505,0,0,0,0,0,0,0,0,0,0,0.1489,0.1472,0.1417,0.1417,0.1416,0.1416,0.1416,0.1502,0.1507,0.157,0,0.1571,0,0.1561,0.1548,0.1549,0,0,0,0.1413,0.1467,0.1471,0.1417,0.1416,0.1416,0.1415,0.1504,0.1509,0.1577,0.1572,0.1576,0.1563,0.1549,0.155,0.183,0.1832,0,0,0.1413,0.1418,0.1467,0.1475,0.142,0.1415,0.1415,0.1506,0.1515,0.1572,0.1578,0.1565,0.155,0.1552,0.1829,0.1831,0,0,0,0.1415,0.1418,0.1416,0.1471,0.1464,0.1415,0.1415,0.151,0.1511,0.1579,0.1567,0.1551,0.1553,0.1827,0.1829,0.1894,0,0,0,0.1415,0.1418,0.1417,0.1419,0.1461,0.147,0.1418,0.1504,0.1513,0.1566,0.1551,0.1555,0.1824,0.1828,0.1888,0.1887,0,0,0,0.1416,0.1419,0.142,0.1419,0.142,0.1468,0.1472,0.1505,0.1507,0.1549,0.1555,0.1823,0.1827,0.1883,0.188,0.1932,0,0,0,0.1419,0.1426,0.142,0.144,0.142,0.1497,0.1471,0.1517,0.1555,0.1552,0.1825,0.1829,0.1881,0.1875,0.1927,0.1714,0.1718,0,0,0.1429,0.1428,0.1443,0.1437,0.1522,0.1496,0.1614,0.1632,0.1654,0.1798,0.1803,0.189,0.1879,0.1931,0.1968,0.1963,0,0,0,0.1448,0.1476,0.1494,0.1544,0.1584,0.1654,0.1686,0.1729,0.1843,0.1697,0.1962,0.1954,0.1983,0.1848,0.1847,0.185,0.1849,0.1849,0.1849,0.1488,0.1526,0.1594,0.166,0.171,0.1795,0.1862,0.195,0.195,0.203,0.2061,0.2216,0.2078,0.2073,0.2139,0.214,0.214,0.214,0.2141,0.1569,0.1617,0.1689,0.1762,0.1842,0.1939,0.2065,0.2087,0.2239,0.2205,0.2231,0.1991,0.2074,0.2147,0.2146,0.2145,0.2144,0.2144,0.2143,0.16,0.1633,0.1685,0.1816,0.1917,0.1996,0.2111,0.2209,0.2284,0.2345,0.2181,0.2176,0.2196,0.2355,0.2355,0.2356,0.2356,0.2356,0.2356,0.1605,0.1669,0.1757,0.1867,0.1919,0.2006,0.214,0.2215,0.2241,0.2232,0.223,0.2288,0.2281,0.2211,0.2361,0.236,0.2359,0.2359,0.2359,0.1687,0.1693,0.1807,0.1872,0.1986,0.1995,0.2109,0.2111,0.2188,0.2155,0.2173,0.2176,0.2123,0.2121,0.2049,0.2148,0.2148,0.2148,0.2148,0.1733,0.1751,0.1878,0.1948,0.201,0.2004,0.1908,0.1818,0.1868,0.181,0.1824,0.1719,0.1734,0.1654,0.1663,0.158,0.1558,0.1557,0.1556,0.1849,0.1849,0.1933,0.1965,0.2009,0.1963,0.1721,0.1375,0.1293,0.1536,0.1755,0.2102,0.1982,0.1993,0.1896,0.1901,0.1777,0,0]},{"header":{"parameterUnit":"m.s-1","parameterCategory":2,"la1":30.2992,"la2":30.254,"lo1":-89.0895,"lo2":-89.0443,"dy":0.0025,"dx":0.0025,"nx":19,"ny":19,"refTime":"2026-05-04T21:00:00:Z","depth":"2","parameterNumber":3,"parameterNumberName":"V-component_of_CURRENTS"},"data":[0,0,0,0.0089,0.0089,0.0105,0.0105,0.0222,0.0224,0,0,0,0,0,0,0,0,0,0,0,0.0086,0.0086,0.0089,0.0089,0.0105,0.0105,0.0222,0.0224,0,0,0,0,0,0,0,0,0,0,0,0.0086,0.0086,0.0086,0.009,0.0105,0.0105,0.0222,0.0186,0,0,0,0,0,0,0,0,0,0,0.0159,0.0139,0.0086,0.0086,0.009,0.0105,0.0105,0.0184,0.0189,0.0243,0,0.0243,0,0.0238,0.0233,0.0234,0,0,0,0.0092,0.0134,0.0142,0.0086,0.009,0.0105,0.0098,0.0186,0.0191,0.025,0.0245,0.0248,0.024,0.0234,0.0235,0.0468,0.047,0,0,0.0091,0.009,0.0137,0.0145,0.0095,0.0098,0.0099,0.0188,0.0196,0.0245,0.0251,0.0242,0.0235,0.0236,0.0467,0.0469,0,0,0,0.0087,0.009,0.0092,0.0141,0.0137,0.0098,0.0099,0.0191,0.0193,0.0252,0.0243,0.0236,0.0238,0.0465,0.0467,0.0535,0,0,0,0.0087,0.0087,0.0092,0.0092,0.0134,0.015,0.0101,0.0186,0.0196,0.0242,0.0236,0.0239,0.0464,0.0466,0.0529,0.057,0,0,0,0.0085,0.0087,0.0089,0.0092,0.0097,0.0148,0.0154,0.0188,0.0192,0.0234,0.024,0.0462,0.0466,0.0525,0.0562,0.0655,0,0,0,0.0084,0.0091,0.0089,0.0092,0.0097,0.0127,0.0153,0.018,0.0213,0.0237,0.0464,0.0467,0.0523,0.0557,0.065,0.0611,0.0633,0,0,0.0093,0.0092,0.0092,0.009,0.0101,0.0124,0.0212,0.0261,0.0297,0.0438,0.0442,0.0531,0.0562,0.0654,0.0809,0.0825,0,0,0,0.0094,0.0092,0.0095,0.0097,0.0121,0.0217,0.0248,0.0328,0.047,0.0333,0.0583,0.0601,0.0656,0.0623,0.0637,0.0484,0.0483,0.0483,0.0482,0.0099,0.0097,0.0106,0.0124,0.0174,0.0288,0.0404,0.0538,0.0526,0.0628,0.0693,0.0863,0.083,0.0839,0.0731,0.0731,0.0731,0.0732,0.0732,0.0085,0.0089,0.0128,0.0139,0.0255,0.0356,0.0598,0.066,0.0877,0.0829,0.0878,0.0742,0.0858,0.0738,0.0737,0.0736,0.0735,0.0735,0.0735,0.0075,0.0084,0.0085,0.0147,0.0301,0.0458,0.0734,0.0875,0.0953,0.1038,0.1003,0.1,0.0889,0.1055,0.1056,0.1056,0.1057,0.1057,0.1058,0.0063,0.0072,0.012,0.0189,0.0312,0.053,0.0833,0.0983,0.1097,0.1104,0.1103,0.0972,0.0962,0.0911,0.1067,0.1065,0.1064,0.1063,0.1063,0.0055,0.0073,0.0169,0.0265,0.0524,0.0766,0.0975,0.1188,0.1288,0.1311,0.1154,0.1148,0.1128,0.1116,0.1071,0.1259,0.1259,0.1259,0.1259,0.0076,0.0074,0.0268,0.0471,0.0712,0.0918,0.1186,0.1258,0.1269,0.1195,0.1198,0.1091,0.1085,0.1056,0.1045,0.0995,0.1164,0.1164,0.1164,0.0093,0.0163,0.0336,0.0523,0.0819,0.1067,0.1255,0.121,0.1088,0.1158,0.1163,0.1256,0.11,0.1091,0.1041,0.1025,0.0942,0,0]}],[{"header":{"parameterUnit":"m.s-1","parameterCategory":2,"la1":30.2992,"la2":30.254,"lo1":-89.0895,"lo2":-89.0443,"dy":0.0025,"dx":0.0025,"nx":19,"ny":19,"refTime":"2026-05-04T21:00:00:Z","depth":"4","parameterNumber":2,"parameterNumberName":"U-component_of_CURRENTS"},"data":[0,0,0,0.0696,0.0697,0.075,0.075,0.0804,0.0804,0,0,0,0,0,0,0,0,0,0,0,0.0686,0.0686,0.0696,0.0697,0.0749,0.075,0.0804,0.0804,0,0,0,0,0,0,0,0,0,0,0,0.0686,0.0686,0.0687,0.0697,0.0749,0.075,0.0804,0.0768,0,0,0,0,0,0,0,0,0,0,0.0719,0.0714,0.0686,0.0687,0.0697,0.0749,0.075,0.0766,0.077,0.0775,0,0.0791,0,0.0794,0.0807,0.0807,0,0,0,0.0699,0.0711,0.072,0.0687,0.0698,0.0749,0.0726,0.0768,0.0773,0.078,0.0792,0.0793,0.0795,0.0808,0.0808,0.0795,0.0795,0,0,0.0696,0.0699,0.0717,0.0723,0.0721,0.0725,0.0728,0.0771,0.0782,0.0792,0.0795,0.0796,0.0808,0.0808,0.0795,0.0795,0,0,0,0.0686,0.0697,0.0706,0.0721,0.0729,0.0726,0.073,0.078,0.0782,0.0795,0.0797,0.0808,0.0809,0.0796,0.0795,0.0862,0,0,0,0.0685,0.069,0.0704,0.0706,0.0729,0.0758,0.0738,0.078,0.0784,0.0796,0.0808,0.0809,0.0797,0.0796,0.0861,0.0895,0,0,0,0.0682,0.069,0.0698,0.0706,0.0727,0.0757,0.0762,0.0781,0.0785,0.0807,0.0809,0.0797,0.0796,0.086,0.0893,0.0979,0,0,0,0.0679,0.067,0.0698,0.0668,0.0726,0.0687,0.0762,0.0755,0.0766,0.0808,0.0796,0.0795,0.086,0.0892,0.0977,0.0763,0,0,0,0.0654,0.0667,0.0638,0.0663,0.0572,0.0679,0.0641,0.0704,0.0753,0.0783,0.0783,0.0861,0.0893,0.0979,0.0694,0,0,0,0,0.0617,0.0569,0.0555,0.0508,0.0522,0.0573,0.0598,0.0718,0.0821,0.0756,0.0819,0.0836,0.0889,0.0753,0.079,0.079,0.079,0.079,0.079,0.0541,0.0498,0.0404,0.0345,0.0374,0.0478,0.0577,0.0727,0.0752,0.0843,0.0859,0.0923,0.0774,0.0818,0.0818,0.0818,0.0819,0.0819,0.0819,0.0356,0.0257,0.0267,0.0183,0.0285,0.0337,0.0586,0.0701,0.0906,0.0925,0.0974,0.0789,0.0824,0.0823,0.0822,0.0822,0.0821,0.0821,0.0821,0.0228,0.0172,0.0138,0.0084,0.0215,0.0379,0.0586,0.0808,0.0958,0.1018,0.091,0.098,0.1016,0.1069,0.1069,0.107,0.107,0.1071,0.1071,0.0106,0.0043,0.0018,0.0034,0.0147,0.0359,0.069,0.0777,0.0953,0.0958,0.1062,0.1008,0.1,0.1029,0.1079,0.1078,0.1077,0.1076,0.1075,-0.0135,-0.0068,-0.0091,-0.0026,0.0157,0.0306,0.0592,0.0751,0.0876,0.0878,0.093,0.0935,0.0906,0.0901,0.0926,0.0948,0.0946,0.0943,0,-0.0225,-0.023,-0.0198,-0.0102,0.004,0.0244,0.0363,0.0499,0.0679,0.0685,0.0801,0.0853,0.0858,0.0812,0.0805,0.0824,0,0,0,-0.0376,-0.031,-0.0285,-0.0194,-0.0033,0.0162,0.0389,0.0426,0.0698,0.067,0.0881,0.0897,0.0829,0.1103,0.1072,0.1062,0.1108,0,0]},{"header":{"parameterUnit":"m.s-1","parameterCategory":2,"la1":30.2992,"la2":30.254,"lo1":-89.0895,"lo2":-89.0443,"dy":0.0025,"dx":0.0025,"nx":19,"ny":19,"refTime":"2026-05-04T21:00:00:Z","depth":"4","parameterNumber":3,"parameterNumberName":"V-component_of_CURRENTS"},"data":[0,0,0,-0.0088,-0.0088,-0.0071,-0.0071,0.0011,0.0011,0,0,0,0,0,0,0,0,0,0,0,-0.0093,-0.0093,-0.0088,-0.0088,-0.0071,-0.0071,0.001,0.0011,0,0,0,0,0,0,0,0,0,0,0,-0.0093,-0.0093,-0.0093,-0.0088,-0.0071,-0.0071,0.001,-0.0016,0,0,0,0,0,0,0,0,0,0,-0.004,-0.0056,-0.0093,-0.0093,-0.0088,-0.0071,-0.0071,-0.0018,-0.0015,0.0019,0,0.0018,0,0.0016,0.0018,0.0018,0,0,0,-0.0084,-0.0059,-0.0054,-0.0093,-0.0088,-0.0072,-0.0078,-0.0017,-0.0013,0.0024,0.0019,0.0022,0.0018,0.0018,0.0019,0.0123,0.0124,0,0,-0.0085,-0.0088,-0.0057,-0.0051,-0.0086,-0.0078,-0.0077,-0.0015,-0.001,0.0019,0.0023,0.0019,0.0019,0.002,0.0123,0.0123,0,0,0,-0.009,-0.0089,-0.0086,-0.0054,-0.0056,-0.0078,-0.0077,-0.0013,-0.0013,0.0024,0.002,0.002,0.0021,0.0122,0.0123,0.0163,0,0,0,-0.0091,-0.0092,-0.0086,-0.0088,-0.0058,-0.0043,-0.0077,-0.0017,-0.001,0.002,0.002,0.0022,0.0122,0.0123,0.016,0.0194,0,0,0,-0.0094,-0.0092,-0.0092,-0.0088,-0.0083,-0.0045,-0.004,-0.0016,-0.0012,0.0018,0.0022,0.0122,0.0123,0.0159,0.019,0.027,0,0,0,-0.0095,-0.0085,-0.0092,-0.007,-0.0083,-0.0039,-0.0041,-0.0013,0.0013,0.002,0.0122,0.0123,0.0158,0.0188,0.0266,0.0209,0,0,0,-0.008,-0.0083,-0.0067,-0.0072,0.0002,-0.0041,0.0025,0.0046,0.0042,0.0105,0.0107,0.0161,0.019,0.0269,0.0268,0,0,0,0,-0.006,-0.0029,-0.0014,0.0028,0.0039,0.0077,0.0083,0.0084,0.0122,0.006,0.017,0.0188,0.0237,0.0193,0.0128,0.0128,0.0128,0.0127,0.0127,-0.0016,0.0015,0.0089,0.0143,0.017,0.0165,0.0178,0.0185,0.0174,0.0191,0.0226,0.0323,0.0277,0.0224,0.0224,0.0225,0.0225,0.0225,0.0225,0.008,0.0138,0.0201,0.0294,0.032,0.0362,0.0326,0.0287,0.0333,0.0286,0.0331,0.0244,0.0229,0.0228,0.0228,0.0227,0.0227,0.0227,0.0226,0.0126,0.0166,0.0247,0.0406,0.0485,0.0478,0.0481,0.0431,0.0396,0.0414,0.0405,0.0375,0.0367,0.0452,0.0452,0.0453,0.0453,0.0454,0.0454,0.0143,0.0228,0.0381,0.0528,0.0616,0.0632,0.0586,0.0551,0.0504,0.0467,0.0451,0.04,0.0393,0.0382,0.0462,0.046,0.0459,0.0459,0.0458,0.0207,0.0281,0.0475,0.0605,0.0755,0.0727,0.0715,0.0605,0.0615,0.0578,0.0501,0.0497,0.0491,0.0482,0.0474,0.0584,0.0584,0.0583,0,0.0261,0.031,0.0578,0.0736,0.0784,0.0764,0.0684,0.0612,0.0568,0.0569,0.059,0.0505,0.05,0.0491,0.0482,0.0472,0,0,0,0.0346,0.0414,0.0583,0.0739,0.0791,0.0661,0.062,0.0588,0.0613,0.0548,0.0574,0.0576,0.0456,0.0485,0.0467,0.0457,0.044,0,0]}]]